カタログに戻る

ECHOSTAR 6

運用中通信GEO
NORAD 26402·PAYLOAD·🇺🇸 United States

打ち上げ Jul 14, 2000 から Cape Canaveral Space Force Station

Loading…

TLE

最新Source: Space-Track

元期: Sep 14, 2026, 13:30 UTC

1 26402U 00038A   26257.56308561  .00000030  00000-0  00000-0 0  9994
2 26402  11.0432  45.7910 0001133 307.7213  75.9406  0.98789068 95396

AllMySatでECHOSTAR 6をリアルタイム追跡

Download on the App Store